Regional Weather Roundup
Issued by NWS

Home | Current Version | Previous Version | Graphics & Text | Print | Product List | Glossary On
Versions: 1 2 3 4 5 6 7 8 9 10 11 12 13 14 15 16 17 18 19 20 21 22 23 24 25 26 27
000
ASUS45 KCYS 230810
RWRWY

WYOMING REGIONAL WEATHER ROUNDUP
NATIONAL WEATHER SERVICE CHEYENNE WY
100 AM MST TUE JAN 23 2018

NOTE:  "FAIR" INDICATES FEW OR NO CLOUDS BELOW 12,000 FEET
WITH NO SIGNIFICANT WEATHER AND/OR OBSTRUCTIONS TO VISIBILITY.

WYZ001-230900-
YELLOWSTONE NATIONAL PARK

CITY           SKY/WX    TMP DP  RH WIND       PRES   REMARKS
LK YELLOWSTONE   N/A      1  -2  87 NW3       30.16S
W YELLOWSTONE  NOT AVBL

$$
WYZ002>013-054>058-071-098>099-230900-
NORTHERN WYOMING

CITY           SKY/WX    TMP DP  RH WIND       PRES   REMARKS
JACKSON        LGT SNOW  16  13  88 N3        30.19F FOG
CODY           FAIR      30  12  47 W13G18    30.11S WCI  20
GREYBULL       FAIR      13  10  88 S6        30.16F WCI   4
WORLAND        FAIR       9   6  88 SE9       30.14F WCI  -4
SHERIDAN       FAIR      24  20  84 S3        30.10S
BUFFALO        CLOUDY    26  18  71 NW5       30.10S WCI  20
GILLETTE       MOCLDY    24  19  81 W8        30.08F WCI  15
HULETT         CLOUDY    28  23  80 S8        30.08F WCI  20
NEWCASTLE      FAIR      19  14  79 NW5       30.10S WCI  13

$$
WYZ014>020-022>026-101>103-230900-
CENTRAL WYOMING

CITY           SKY/WX    TMP DP  RH WIND       PRES   REMARKS
BIG PINEY      FAIR       1  -1  91 E8        30.20S WCI -13
PINEDALE       PTSUNNY    5   3  92 W5        30.19S WCI  -4
DUBOIS         FAIR      18  10  73 NW13      30.09S WCI   4
LANDER         FAIR      12   5  73 W8        30.14R WCI   0
RIVERTON       FAIR       4  -1  80 CALM      30.14F
CASPER         MOCLDY    21  16  81 SW15      30.11F WCI   8
DOUGLAS        CLOUDY    21  15  78 N7        30.12S WCI  12

$$
WYZ021-027>030-104>119-230900-
SOUTHERN WYOMING

CITY           SKY/WX    TMP DP  RH WIND       PRES   REMARKS
EVANSTON       MOCLDY    22  18  85 SW12      30.23F WCI  10
FORT BRIDGER   FAIR      21  18  90 W12       30.25F WCI   9
ROCK SPRINGS   FAIR      13   9  84 W10       30.20F WCI   0
DIXON            N/A     22  17  81 SW6       30.25S WCI  14
RAWLINS        CLOUDY    20  14  77 W22       30.14S WCI   3
SARATOGA       CLOUDY    21  16  79 W16       30.15F WCI   7
LARAMIE        FAIR      15   8  73 W13       30.08R WCI   1
CHEYENNE       CLOUDY    26  14  60 NW14      30.07F WCI  14
TORRINGTON     CLOUDY    25  17  72 NW10      30.11R WCI  15

$$




USA.gov is the U.S. government's official web portal to all federal, state and local government web resources and services.